Hourly Data Report for September 08, 2017

All times are specified in Local Standard Time (LST). Add 1 hour to adjust for Daylight Saving Time where and when it is observed.

ST. PETERS
PRINCE EDWARD ISLAND

46°27'01.000" N
62°34'33.000" W
29.70 m
8300562
71310
ZSP

Download Data

Hourly Data (September 2017)
Hourly Data Report for September 8, 2017
Temp Definition
°C
Dew Point Temp Definition
°C
Rel Hum Definition
%
Wind Dir Definition
10's deg

Wind Spd Definition
km/h
Visibility Definition
km
Stn Press Definition
kPa
Hmdx Definition


Wind Chill Definition


Weather Definition


TIME
00:00 19.5 17.3 88 20 17   100.68     LegendNANA
01:00 19.0 16.7 87 19 15   100.67     LegendNANA
02:00 18.2 15.6 85 22 19   100.70     LegendNANA
03:00 17.1 14.9 87 22 21   100.74     LegendNANA
04:00 16.6 14.0 84 22 18   100.76     LegendNANA
05:00 16.7 14.1 85 22 17   100.76     LegendNANA
06:00 16.7 14.2 85 23 17   100.82     LegendNANA
07:00 16.8 14.2 85 22 19   100.92     LegendNANA
08:00 17.9 14.3 80 22 23   100.97     LegendNANA
09:00 18.8 14.3 75 22 22   101.00     LegendNANA
10:00 19.8 14.4 71 22 24   101.05     LegendNANA
11:00 20.2 15.0 72 22 24   101.11     LegendNANA
12:00 21.0 14.8 68 24 23   101.09 25   LegendNANA
13:00 21.3 13.8 62 24 21   101.12 25   LegendNANA
14:00 22.0 14.0 60 23 19   101.15 25   LegendNANA
15:00 22.2 12.6 55 23 20   101.20 25   LegendNANA
16:00 21.8 12.5 56 23 17   101.26     LegendNANA
17:00 21.3 12.1 56 24 15   101.32     LegendNANA
18:00 19.8 12.0 61 24 10   101.34     LegendNANA
19:00 17.4 10.9 66 24 9   101.42     LegendNANA
20:00 16.3 10.6 69 20 7   101.50     LegendNANA
21:00 15.2 10.0 71 19 9   101.53     LegendNANA
22:00 14.5 10.0 74 18 10   101.54     LegendNANA
23:00 13.7 10.2 79 17 10   101.58     LegendNANA

Notes on Data Quality.

Legend

  • E = Estimated
  • M = Missing
  • NA = Not Available
  • ‡ = Partner data that is not subject to review by the National Climate Archives
Date modified: